FENGYUN 1C DEB, 30047

Orbit data source: Space-Track

FENGYUN 1C DEB, 30047 is space debris in SSO originally from a launch on Mon, 10 May 1999 UTC launched from the Taiyaun Space Center, China (TSC). Fengyun 1C debris stems from the Chinese weather satellite Fengyun-1C, which was intentionally destroyed by a Chinese anti-satellite missile in 2007. This event dramatically increased the amount of space debris, with thousands of trackable fragments posing hazards to satellites and human spaceflight. The Fengyun 1C debris cloud has become a focal point in discussions about space sustainability and the need for international regulations to prevent the creation of new debris.

Loading next visibility...
Identifier
30047, 1999-025NY
Orbit
SSO
Country
Flag of CNCN / PRC
Related business
Manufacturer
Unknown
Mission
Spacecraft
Bus & Motor
Unknown
Mass
Unknown
Launch date (UTC)
1999-05-10 (27 years ago)
Launch vehicle
Unknown
Launch site
Taiyaun Space Center, China (TSC)
Object type
Payload
Rocket body
Debris
Shape & HBR
Unknown shape, 0.1 m
Radar Cross Section
Medium (>0.1 m² and <1 m²)

Expand to show TLE details & history
Last TLE update: 12 hours ago

TLE from 12 hours ago
0 FENGYUN 1C DEB
1 30047U 99025NY  26170.42935878  .00000846  00000-0  62706-3 0  9993
2 30047  99.9376 346.5672 0125582 180.9328 209.6367 13.94719148985468
Epoch: 2026-06-19T10:18Z
TLE epoch observation values (Epoch: 2026-06-19T10:18:16.598Z)
Latitude
29.42359°
Longitude
-81.30207°
Altitude
995.597 km
Speed
7.316 km/s
True Right ascension
22h 43m 42s
True Declination
29° 16' 53"
Sunlit
Object was in daylight at epoch
Visualization orbit readout
Latitude
Unknown
Longitude
Unknown
Altitude
Unknown
Speed
Unknown
Apparent Right ascension
Unknown
Apparent Declination
Unknown
Sunlit
N/A
Visualization observer readout
Local Sidereal Time
08:47:11
Azimuth
Unknown
Elevation
Unknown
Doppler factor
Unknown
Orbital elements
Apogee altitude
1,000.912 km
Perigee altitude
817.875 km
Semi-major axis
7,287.53 km
Eccentricity
0.01256
Inclination
99.9376°
RAAN
346.5672°
Arg. of periapsis
180.9328°
True anomaly
208.93469°
Mean anomaly
209.6367°
Eccentric anomaly
209.28474°
Mean motion
3.48877 °/min
Orbital period
103.19 mins
BSTAR
0.00062706
Loading maneuver chart data...
Computing Atmospheric mass density...

Documentation

Showing up to 5 results
|